• In United Kingdom
  • List of Countries
  • For 7 days
  • Water Temperature
  • Satellite Maps
  • Weather Map
  • Weather Widgets
  • user-avatar
    Login

    Hourly Weather Maseru

    Today, 14 November, Wednesday

    Time Temperature Precipitation Wind Pressure Humidity
    00:00 +23°C° 0 mm 1 mps 637 mmHg 24%
    01:00 +22°C° 0 mm 1 mps 637 mmHg 26%
    02:00 +21°C° 0 mm 1 mps 636 mmHg 28%
    03:00 +20°C° 0 mm 1 mps 636 mmHg 30%
    04:00 +20°C° 0 mm 1 mps 636 mmHg 32%
    05:00 +19°C° 0 mm 1 mps 635 mmHg 34%
    06:00 +22°C° 0 mm 1 mps 637 mmHg 29%
    07:00 +25°C° 0 mm 1 mps 638 mmHg 24%
    08:00 +29°C° 0 mm 1 mps 639 mmHg 19%
    09:00 +31°C° 0 mm 1 mps 639 mmHg 17%
    10:00 +32°C° 0 mm 1 mps 639 mmHg 14%
    11:00 +35°C° 0 mm 2 mps 639 mmHg 12%
    12:00 +35°C° 0 mm 2 mps 639 mmHg 11%
    13:00 +36°C° 0 mm 3 mps 638 mmHg 11%
    14:00 +36°C° 0 mm 3 mps 638 mmHg 10%
    15:00 +36°C° 0 mm 3 mps 638 mmHg 10%
    16:00 +36°C° 0 mm 4 mps 638 mmHg 10%
    17:00 +35°C° 0 mm 4 mps 637 mmHg 10%
    18:00 +33°C° 0 mm 3 mps 637 mmHg 12%
    19:00 +30°C° 0 mm 3 mps 637 mmHg 14%
    20:00 +28°C° 0 mm 2 mps 636 mmHg 15%
    21:00 +27°C° 0 mm 2 mps 637 mmHg 17%
    22:00 +27°C° 0 mm 2 mps 637 mmHg 19%
    23:00 +26°C° 0 mm 1 mps 637 mmHg 21%

    Tomorrow, 15 November, Thursday

    Time Temperature Precipitation Wind Pressure Humidity
    00:00 +25°C° 0 mm 1 mps 637 mmHg 23%
    01:00 +24°C° 0 mm 1 mps 637 mmHg 26%
    02:00 +24°C° 0 mm 2 mps 637 mmHg 28%
    03:00 +23°C° 0 mm 2 mps 636 mmHg 31%
    04:00 +21°C° 0 mm 2 mps 636 mmHg 34%
    05:00 +20°C° 0 mm 2 mps 636 mmHg 37%
    06:00 +22°C° 0 mm 3 mps 637 mmHg 34%
    07:00 +26°C° 0 mm 4 mps 638 mmHg 30%
    08:00 +29°C° 0 mm 5 mps 639 mmHg 26%
    09:00 +32°C° 0 mm 5 mps 639 mmHg 23%
    10:00 +33°C° 0 mm 5 mps 639 mmHg 19%
    11:00 +35°C° 0 mm 5 mps 639 mmHg 16%
    12:00 +36°C° 0 mm 5 mps 639 mmHg 15%
    13:00 +36°C° 0 mm 5 mps 639 mmHg 13%
    14:00 +37°C° 0 mm 5 mps 638 mmHg 12%
    15:00 +36°C° 0 mm 5 mps 638 mmHg 12%
    16:00 +36°C° 0 mm 5 mps 638 mmHg 11%
    17:00 +36°C° 0 mm 4 mps 638 mmHg 11%
    18:00 +33°C° 0 mm 3 mps 637 mmHg 13%
    19:00 +29°C° 0 mm 2 mps 637 mmHg 15%
    20:00 +26°C° 0 mm 1 mps 636 mmHg 17%
    21:00 +25°C° 0 mm 1 mps 636 mmHg 19%
    22:00 +24°C° 0 mm 1 mps 637 mmHg 21%
    23:00 +23°C° 0 mm 2 mps 637 mmHg 24%

    Day after tomorrow, 16 November, Friday

    Time Temperature Precipitation Wind Pressure Humidity
    00:00 +23°C° 0 mm 2 mps 637 mmHg 29%
    01:00 +21°C° 0 mm 2 mps 637 mmHg 33%
    02:00 +20°C° 0 mm 2 mps 636 mmHg 38%
    03:00 +19°C° 0 mm 2 mps 636 mmHg 40%
    04:00 +19°C° 0 mm 2 mps 636 mmHg 42%
    05:00 +19°C° 0 mm 2 mps 636 mmHg 45%
    06:00 +22°C° 0 mm 3 mps 637 mmHg 39%
    07:00 +26°C° 0 mm 4 mps 639 mmHg 33%
    08:00 +29°C° 0 mm 5 mps 640 mmHg 28%
    09:00 +32°C° 0 mm 5 mps 640 mmHg 24%
    10:00 +34°C° 0 mm 5 mps 640 mmHg 20%
    11:00 +36°C° 0 mm 5 mps 640 mmHg 16%
    12:00 +37°C° 0 mm 5 mps 640 mmHg 13%
    13:00 +37°C° 0 mm 5 mps 639 mmHg 11%
    14:00 +39°C° 0 mm 5 mps 639 mmHg 9%
    15:00 +39°C° 0 mm 5 mps 639 mmHg 8%
    16:00 +37°C° 0 mm 5 mps 638 mmHg 8%
    17:00 +37°C° 0 mm 5 mps 638 mmHg 8%
    18:00 +34°C° 0 mm 4 mps 637 mmHg 10%
    19:00 +29°C° 0 mm 3 mps 637 mmHg 12%
    20:00 +26°C° 0 mm 1 mps 636 mmHg 14%
    21:00 +25°C° 0 mm 2 mps 636 mmHg 15%
    22:00 +25°C° 0 mm 2 mps 636 mmHg 16%
    23:00 +24°C° 0 mm 2 mps 636 mmHg 18%

    17 November, Saturday

    Time Temperature Precipitation Wind Pressure Humidity
    00:00 +23°C° 0 mm 2 mps 636 mmHg 23%
    01:00 +21°C° 0 mm 2 mps 636 mmHg 29%
    02:00 +21°C° 0 mm 2 mps 635 mmHg 35%
    03:00 +20°C° 0 mm 2 mps 635 mmHg 40%
    04:00 +19°C° 0 mm 2 mps 635 mmHg 45%
    05:00 +19°C° 0 mm 2 mps 635 mmHg 50%
    06:00 +22°C° 0 mm 3 mps 636 mmHg 42%
    07:00 +26°C° 0 mm 4 mps 638 mmHg 34%
    08:00 +29°C° 0 mm 4 mps 639 mmHg 26%
    09:00 +30°C° 0 mm 4 mps 639 mmHg 22%
    10:00 +33°C° 0 mm 4 mps 639 mmHg 17%
    11:00 +35°C° 0 mm 4 mps 639 mmHg 13%
    12:00 +36°C° 0 mm 5 mps 639 mmHg 11%
    13:00 +38°C° 0 mm 6 mps 638 mmHg 9%
    14:00 +39°C° 0 mm 7 mps 638 mmHg 8%
    15:00 +38°C° 0 mm 7 mps 637 mmHg 8%
    16:00 +36°C° 0 mm 7 mps 637 mmHg 9%
    17:00 +35°C° 0 mm 7 mps 637 mmHg 10%
    18:00 +33°C° 0 mm 6 mps 637 mmHg 12%
    19:00 +29°C° 0 mm 4 mps 636 mmHg 14%
    20:00 +26°C° 0 mm 3 mps 636 mmHg 17%
    21:00 +25°C° 0 mm 2 mps 636 mmHg 18%
    22:00 +24°C° 0 mm 2 mps 637 mmHg 20%
    23:00 +22°C° 0 mm 1 mps 637 mmHg 21%

    18 November, Sunday

    Time Temperature Precipitation Wind Pressure Humidity
    00:00 +22°C° 0 mm 1 mps 636 mmHg 28%
    01:00 +20°C° 0 mm 2 mps 636 mmHg 34%
    02:00 +20°C° 0 mm 2 mps 636 mmHg 40%
    03:00 +19°C° 0 mm 2 mps 636 mmHg 46%
    04:00 +19°C° 0 mm 1 mps 636 mmHg 52%
    05:00 +18°C° 0 mm 1 mps 636 mmHg 58%
    06:00 +20°C° 0 mm 2 mps 637 mmHg 51%
    07:00 +24°C° 0 mm 3 mps 638 mmHg 44%
    08:00 +26°C° 0 mm 4 mps 639 mmHg 37%
    09:00 +28°C° 0 mm 4 mps 639 mmHg 30%
    10:00 +30°C° 0 mm 4 mps 639 mmHg 23%
    11:00 +33°C° 0 mm 4 mps 639 mmHg 16%
    12:00 +35°C° 0 mm 5 mps 638 mmHg 14%
    13:00 +36°C° 0 mm 6 mps 638 mmHg 12%
    14:00 +38°C° 0 mm 8 mps 638 mmHg 9%
    15:00 +37°C° 0 mm 8 mps 637 mmHg 10%
    16:00 +35°C° 0 mm 8 mps 637 mmHg 11%
    17:00 +34°C° 0 mm 8 mps 636 mmHg 11%
    18:00 +32°C° 0 mm 6 mps 637 mmHg 13%
    19:00 +29°C° 0 mm 4 mps 637 mmHg 15%
    20:00 +27°C° 0 mm 3 mps 637 mmHg 16%
    21:00 +26°C° 0 mm 2 mps 637 mmHg 19%
    22:00 +25°C° 0 mm 2 mps 637 mmHg 22%
    23:00 +23°C° 0 mm 1 mps 637 mmHg 25%

    19 November, Monday

    Time Temperature Precipitation Wind Pressure Humidity
    00:00 +21°C° 0 mm 2 mps 637 mmHg 35%
    01:00 +20°C° 0 mm 2 mps 636 mmHg 45%
    02:00 +19°C° 0 mm 3 mps 636 mmHg 55%
    03:00 +18°C° 0 mm 3 mps 636 mmHg 61%
    04:00 +18°C° 0 mm 3 mps 636 mmHg 67%
    05:00 +17°C° 0 mm 3 mps 636 mmHg 74%
    06:00 +19°C° 0 mm 4 mps 637 mmHg 66%
    07:00 +21°C° 0 mm 5 mps 637 mmHg 59%
    08:00 +23°C° 0 mm 6 mps 638 mmHg 51%
    09:00 +26°C° 0 mm 6 mps 638 mmHg 44%
    10:00 +29°C° 0 mm 6 mps 638 mmHg 37%
    11:00 +32°C° 0 mm 6 mps 638 mmHg 29%
    12:00 +32°C° 0 mm 5 mps 638 mmHg 26%
    13:00 +33°C° 0 mm 5 mps 637 mmHg 24%
    14:00 +33°C° 0 mm 5 mps 636 mmHg 21%
    15:00 +29°C° 1 mm 6 mps 636 mmHg 33%
    16:00 +26°C° 1 mm 7 mps 636 mmHg 44%
    17:00 +22°C° 1 mm 8 mps 635 mmHg 56%
    18:00 +21°C° 2.1 mm 6 mps 635 mmHg 63%
    19:00 +20°C° 2.1 mm 5 mps 636 mmHg 70%
    20:00 +19°C° 2.1 mm 3 mps 636 mmHg 77%
    21:00 +19°C° 0.5 mm 2 mps 636 mmHg 76%
    22:00 +19°C° 0.5 mm 2 mps 636 mmHg 74%
    23:00 +19°C° 0.5 mm 2 mps 636 mmHg 73%
    Show more